Owosso, MI

1:48 AM EDT on May 30, 2017 (GMT -0400)
Owosso

Weather History for KRNP - November, 2012

Change the Weather History Date:

Thursday, November 29, 2012

  Actual Average (KFNT) Record (KFNT)
Temperature  
Mean Temperature 39 °F -  
Max Temperature 49 °F 39 °F 68 °F (1941)
Min Temperature 29 °F 28 °F 1 °F (1929)
Degree Days  
Heating Degree Days 26    
Moisture  
Dew Point 27 °F    
Average Humidity 68    
Maximum Humidity 92    
Minimum Humidity 44    
Precipitation  
Precipitation 0.00 in - - ()
Sea Level Pressure  
Sea Level Pressure 30.21 in    
Wind  
Wind Speed 6 mph (SW)    
Max Wind Speed 13 mph    
Max Gust Speed 21 mph    
Visibility 9 miles    
Events      
Averages and records for this station are not official NWS values.
T = Trace of Precipitation, MM = Missing Value Source: NWS Daily Summary

Daily Weather History Graph

Daily Weather History Graph

Search for Another Location

Airport or City:

Trip Planner

Search our weather history database for the weather conditions in past years. The results will help you decide how hot, cold, wet, or windy it might be!

Date:

Astronomy

Nov. 29, 2012 Rise Set
Actual Time 7:46 AM EST 5:03 PM EST
Civil Twilight 7:14 AM EST 5:35 PM EST
Nautical Twilight 6:39 AM EST 6:10 PM EST
Astronomical Twilight 6:05 AM EST 6:44 PM EST
Moon 6:05 PM EST (11/29) 8:32 AM EST (11/29)
Length of Visible Light 10h 20m
Length of Day
9h 17m
Full, 99% of the Moon is Illuminated
Nov 29
Full
Dec 6
Last Quarter
Dec 13
New
Dec 20
First Quarter
Dec 28
Full

Hourly Weather History & Observations

Time (EST) Temp. Windchill Dew Point Humidity Pressure Visibility Wind Dir Wind Speed Gust Speed Precip Events Conditions
12:15 AM 30.4 °F 25.6 °F 25.5 °F 82% 30.25 in 10.0 mi SW 4.6 mph - N/A   Clear
12:35 AM 30.7 °F 24.1 °F 25.7 °F 82% 30.24 in 10.0 mi SW 6.9 mph - N/A   Clear
12:55 AM 31.1 °F 23.7 °F 25.9 °F 81% 30.24 in 10.0 mi SW 8.1 mph - N/A   Clear
1:15 AM 31.6 °F 26.0 °F 26.1 °F 80% 30.24 in 10.0 mi SW 5.8 mph - N/A   Scattered Clouds
1:35 AM 32.0 °F 26.4 °F 25.7 °F 78% 30.24 in 10.0 mi SW 5.8 mph - N/A   Scattered Clouds
1:55 AM 32.0 °F 25.6 °F 25.9 °F 78% 30.24 in 10.0 mi SW 6.9 mph - N/A   Clear
2:15 AM 32.0 °F 25.6 °F 25.7 °F 78% 30.24 in 10.0 mi SW 6.9 mph - N/A   Clear
2:35 AM 32.0 °F 25.6 °F 25.7 °F 78% 30.24 in 10.0 mi SW 6.9 mph - N/A   Clear
2:55 AM 32.4 °F 26.0 °F 25.7 °F 76% 30.24 in 10.0 mi SW 6.9 mph - N/A   Clear
3:15 AM 32.5 °F 25.5 °F 25.9 °F 76% 30.24 in 10.0 mi SSW 8.1 mph - N/A   Clear
3:35 AM 32.9 °F 26.7 °F 25.9 °F 75% 30.24 in 10.0 mi SW 6.9 mph - N/A   Scattered Clouds
3:55 AM 33.3 °F 27.1 °F 25.5 °F 73% 30.24 in 10.0 mi SW 6.9 mph - N/A   Scattered Clouds
4:15 AM 33.8 °F 27.0 °F 25.0 °F 70% 30.24 in 10.0 mi SW 8.1 mph - N/A   Clear
4:35 AM 34.2 °F 29.0 °F 24.8 °F 69% 30.24 in 10.0 mi SW 5.8 mph - N/A   Clear
4:55 AM 35.2 °F 28.8 °F 24.6 °F 65% 30.24 in 10.0 mi SW 8.1 mph - N/A   Clear
5:15 AM 36.5 °F 29.7 °F 24.8 °F 63% 30.24 in 10.0 mi SW 9.2 mph 16.1 mph N/A   Scattered Clouds
5:35 AM 36.7 °F 29.9 °F 25.3 °F 64% 30.24 in 10.0 mi SW 9.2 mph - N/A   Scattered Clouds
5:55 AM 36.5 °F 30.3 °F 25.7 °F 65% 30.23 in 10.0 mi SW 8.1 mph - N/A   Mostly Cloudy
6:15 AM 36.5 °F 31.0 °F 26.1 °F 66% 30.23 in 10.0 mi SW 6.9 mph - N/A   Mostly Cloudy
6:35 AM 36.5 °F 31.0 °F 26.1 °F 66% 30.24 in 10.0 mi SW 6.9 mph - N/A   Mostly Cloudy
6:55 AM 36.5 °F 31.0 °F 26.4 °F 67% 30.24 in 10.0 mi SSW 6.9 mph - N/A   Scattered Clouds
7:15 AM 36.1 °F 29.9 °F 26.4 °F 68% 30.23 in 10.0 mi SSW 8.1 mph - N/A   Clear
7:35 AM 35.8 °F 29.4 °F 26.4 °F 69% 30.23 in 10.0 mi SW 8.1 mph - N/A   Clear
7:55 AM 36.0 °F 30.3 °F 26.6 °F 69% 30.23 in 10.0 mi SSW 6.9 mph - N/A   Clear
8:15 AM 35.6 °F 29.9 °F 26.8 °F 70% 30.23 in 10.0 mi SSW 6.9 mph - N/A   Clear
8:35 AM 35.1 °F 30.1 °F 27.1 °F 73% 30.23 in 10.0 mi SW 5.8 mph - N/A   Clear
8:55 AM 37.0 °F 31.6 °F 27.5 °F 68% 30.24 in 10.0 mi SW 6.9 mph - N/A   Clear
9:15 AM 37.0 °F 32.4 °F 27.5 °F 68% 30.24 in 10.0 mi SW 5.8 mph - N/A   Clear
9:35 AM 37.8 °F 31.8 °F 27.5 °F 67% 30.24 in 10.0 mi SW 8.1 mph - N/A   Clear
9:55 AM 39.0 °F 33.4 °F 28.2 °F 65% 30.24 in 10.0 mi SSW 8.1 mph - N/A   Clear
10:15 AM 40.1 °F 34.7 °F 28.2 °F 63% 30.23 in 10.0 mi SW 8.1 mph - N/A   Clear
10:35 AM 42.4 °F 36.1 °F 28.0 °F 57% 30.23 in 10.0 mi SW 11.5 mph 17.3 mph N/A   Clear
10:55 AM 42.4 °F 36.1 °F 27.9 °F 56% 30.23 in 10.0 mi SW 11.5 mph - N/A   Clear
11:15 AM 43.2 °F 37.9 °F 27.7 °F 54% 30.23 in 10.0 mi SW 9.2 mph - N/A   Clear
11:35 AM 45.7 °F 39.8 °F 28.2 °F 51% 30.21 in 10.0 mi SW 12.7 mph 16.1 mph N/A   Clear
11:55 AM 45.1 °F 40.3 °F 27.7 °F 50% 30.21 in 10.0 mi WSW 9.2 mph - N/A   Clear
12:15 PM 46.8 °F - 27.9 °F 48% 30.20 in 10.0 mi WSW 12.7 mph 17.3 mph N/A   Clear
12:35 PM 47.7 °F - 28.0 °F 47% 30.19 in 10.0 mi SW 9.2 mph - N/A   Clear
12:55 PM 47.8 °F - 27.9 °F 46% 30.18 in 10.0 mi WSW 8.1 mph - N/A   Clear
1:15 PM 48.4 °F - 27.9 °F 45% 30.18 in 10.0 mi SW 12.7 mph 20.7 mph N/A   Clear
1:35 PM 48.7 °F - 28.0 °F 45% 30.17 in 10.0 mi SW 9.2 mph - N/A   Clear
1:55 PM 48.9 °F - 28.0 °F 44% 30.17 in 10.0 mi WSW 9.2 mph - N/A   Clear
2:15 PM 49.6 °F - 28.4 °F 44% 30.17 in 10.0 mi SW 10.4 mph - N/A   Clear
2:35 PM 49.1 °F - 28.0 °F 44% 30.16 in 10.0 mi SSW 9.2 mph - N/A   Clear
2:55 PM 49.1 °F - 28.2 °F 44% 30.15 in 10.0 mi SSW 10.4 mph - N/A   Clear
3:16 PM 48.9 °F - 28.0 °F 44% 30.15 in 10.0 mi SSW 8.1 mph - N/A   Clear
3:35 PM 49.1 °F - 28.2 °F 44% 30.14 in 10.0 mi SW 6.9 mph 16.1 mph N/A   Clear
3:55 PM 49.1 °F - 28.0 °F 44% 30.14 in 10.0 mi SSW 8.1 mph - N/A   Clear
4:15 PM 48.6 °F - 28.0 °F 45% 30.15 in 10.0 mi SW 4.6 mph - N/A   Clear
4:35 PM 48.2 °F - 27.9 °F 45% 30.15 in 10.0 mi WSW 6.9 mph - N/A   Clear
4:55 PM 46.4 °F 44.3 °F 27.5 °F 48% 30.16 in 10.0 mi WSW 4.6 mph - N/A   Clear
5:15 PM 45.1 °F - 27.5 °F 50% 30.16 in 10.0 mi Calm Calm - N/A   Clear
5:35 PM 39.7 °F - 28.0 °F 63% 30.17 in 10.0 mi Calm Calm - N/A   Clear
5:55 PM 39.0 °F - 27.9 °F 64% 30.17 in 10.0 mi Calm Calm - N/A   Clear
6:15 PM 36.7 °F - 28.2 °F 71% 30.17 in 10.0 mi Calm Calm - N/A   Clear
6:35 PM 35.6 °F - 28.8 °F 76% 30.18 in 10.0 mi Calm Calm - N/A   Clear
6:56 PM 33.6 °F - 26.8 °F 76% 30.19 in 10.0 mi Calm Calm - N/A   Clear
7:15 PM 32.7 °F - 27.7 °F 82% 30.19 in 7.0 mi Calm Calm - N/A   Clear
7:35 PM 32.9 °F - 28.2 °F 83% 30.19 in 7.0 mi Calm Calm - N/A   Clear
7:56 PM 31.8 °F - 27.5 °F 84% 30.19 in 7.0 mi Calm Calm - N/A   Clear
8:15 PM 31.6 °F - 27.5 °F 85% 30.20 in 7.0 mi Calm Calm - N/A   Clear
8:35 PM 31.8 °F - 28.0 °F 86% 30.20 in 7.0 mi Calm Calm - N/A   Clear
8:55 PM 31.6 °F - 27.5 °F 85% 30.20 in 7.0 mi Calm Calm - N/A   Clear
9:15 PM 29.7 °F - 26.8 °F 89% 30.20 in 7.0 mi Calm Calm - N/A   Clear
9:35 PM 29.7 °F - 27.0 °F 90% 30.20 in 7.0 mi Calm Calm - N/A   Clear
9:55 PM 30.2 °F - 27.7 °F 90% 30.20 in 7.0 mi Calm Calm - N/A   Clear
10:15 PM 30.9 °F - 28.6 °F 91% 30.20 in 7.0 mi Calm Calm - N/A   Clear
10:35 PM 31.8 °F - 29.1 °F 90% 30.20 in 7.0 mi Calm Calm - N/A   Clear
10:55 PM 30.9 °F - 28.2 °F 90% 30.20 in 10.0 mi Calm Calm - N/A   Clear
11:15 PM 31.1 °F - 28.4 °F 90% 30.20 in 7.0 mi Calm Calm - N/A   Clear
11:36 PM 30.7 °F - 28.4 °F 91% 30.20 in 7.0 mi Calm Calm - N/A   Clear
11:55 PM 30.2 °F - 28.0 °F 92% 30.20 in 7.0 mi Calm Calm - N/A   Clear